Location: Newark
(44.3681°N, 100.3364°W)
Time: 09:39:33
(UTC+00:00)

deb Explorer IX - Pass Details

Date: 20 February 2020
Orbit: 548 x 1100 km, 38.8° (Epoch: 07 April)

Event Time Altitude Azimuth Distance (km) Brightness Sun altitude
Rises 18:14:24 0° 233° (SW) 2,776 ? 34.0°
Reaches altitude 10° 18:16:58 10° 221° (SW) 1,838 ? 34.0°
Maximum altitude 18:20:28 26° 163° (SSE) 1,089 ? 34.2°
Drops below altitude 10° 18:23:55 10° 106° (ESE) 1,817 ? 34.3°
Sets 18:26:26 0° 93° (E) 2,737 ? 34.3°
